Location: LDNL
(36.4545°S, 141.6685°E)
Time: 17:09:55
(UTC+10:00)

Courier 1B - Pass Details

Date: 09 August 2022
Orbit: 962 x 1209 km, 28.3° (Epoch: 25 September)

Event Time Altitude Azimuth Distance (km) Brightness Sun altitude
Exits shadow 06:04:22 16° 295° (WNW) 2,669 9.3 -16.2°
Maximum altitude 06:08:36 25° 337° (NNW) 2,121 9.1 -15.4°
Drops below altitude 10° 06:14:22 10° 29° (NNE) 2,962 10.6 -14.3°
Sets 06:17:34 0° 42° (NE) 3,872 11.5 -13.6°
